Location: Bolton
(53.5720°N, 2.4300°W)
Time: 20:12:17
(UTC+01:00)

Envisat - Visible Passes

Search period start: 28 September 2020 00:00
Search period end: 08 October 2020 00:00
Orbit: 764 x 766 km, 98.1° (Epoch: 28 September)

Date Brightness Start Highest point End Pass type
(mag) Time Alt. Az. Time Alt. Az. Time Alt. Az.
28 Sep 6.1 05:58:10 10° NE 06:01:25 17° E 06:04:40 10° SE visible
29 Sep 6.5 20:03:08 10° WSW 20:05:18 13° W 20:07:27 10° WNW visible
30 Sep 5.6 06:22:55 10° NE 06:27:11 26° E 06:31:25 10° SSE visible
30 Sep 5.8 19:23:52 10° SW 19:27:57 24° W 19:32:04 10° NW visible
01 Oct 6.3 05:47:18 10° NE 05:49:53 14° E 05:52:27 10° ESE visible
02 Oct 6.3 19:50:47 10° WSW 19:53:44 15° W 19:56:44 10° NW visible
03 Oct 5.9 06:11:47 10° NE 06:15:42 22° E 06:19:35 10° SE visible
03 Oct 5.4 19:12:05 10° SSW 19:16:29 29° W 19:20:54 10° NNW visible
04 Oct 6.6 05:36:51 10° ENE 05:38:20 11° E 05:39:49 10° E visible
05 Oct 5.1 06:36:46 10° NNE 06:41:24 34° E 06:45:59 10° SSE visible
05 Oct 6.1 19:38:41 10° SW 19:42:13 19° W 19:45:46 10° NW visible
06 Oct 6.1 06:00:43 10° NE 06:04:11 18° E 06:07:37 10° SE visible
06 Oct 5.0 19:00:24 10° SSW 19:05:01 35° W 19:09:41 10° NNW visible
07 Oct 6.6 20:06:19 10° WSW 20:08:04 12° W 20:09:49 10° WNW visible
